www.pogodaiklimat.ru

Погода и климат >> Архив погоды >> Марокко >> Касабланка


АРХИВ ПОГОДЫ в Касабланке

Время (UTC), дата Ветер
(напр.,м/с)
 
Видим.   Явления Облачность Т
(С)
Тd
(С)
f
(%)
Тe
(С)
Тes
(С)
Комфортность P
(гПа)
Po
(гПа)
Тmin
(С)
Tmax
(С)
R
(мм)
R24
(мм)
S
(см)
06 15.04 З 5
{21}
10 км 3/0
[Ci sp]
+18.6 +11.8 65 +19 +19 тепло 1013.7 1007.0 +17.7
09 15.04 З 9
{19}
3000 м 6/6 480 м
[Cu Sc Ci fib]
+18.6 +15.5 82 +18 +19 тепло 1027.8 1011.0
12 15.04 СЗ 13
{19}
10 км 5/0
[Ci sp]
+21.7 +10.0 47 +23 +23 комфорт 1018.2 1011.5
15 15.04 СЗ 12
{25}
10 км 4/0
[Ci sp]
+21.2 +13.3 61 +24 +24 комфорт 1018.4 1011.6
18 15.04 С 8
{27}
10 км 3/0 300 м
[Ci sp]
+18.8 +12.7 68 +19 +19 тепло 1019.1 1012.4 +22.2
06 16.04 СВ 4
{6}
10 км 3/0
[Ci sp]
+14.1 +11.7 85 +13 +13 по сезону 1016.6 1009.9 +13.1
09 16.04 СВ 8
{12}
12 км 3/0
[Ci sp]
+18.9 +11.3 61 +19 +20 тепло 1016.0 1009.3
12 16.04 СВ 8
{16}
12 км 5/0
[Ci sp]
+21.7 +13.1 58 +24 +27 комфорт 1014.7 1008.0
15 16.04 СВ 10
{16}
12 км 3/0
[Ci sp]
+21.1 +13.5 62 +24 +24 комфорт 1012.2 1005.7
18 16.04 СВ 8
{14}
12 км 5/0
[Ci sp]
+19.0 +14.5 75 +19 +20 тепло 1012.0 1005.3 +21.7
06 17.04 Ю 4
{6}
10 км 4/0
[Ci sp]
+14.1 +12.5 90 +13 +13 по сезону 1010.9 1004.2 +14.0
09 17.04 З 6
{17}
10 км 8/0
[Ci sp]
+17.8 +13.2 74 +17 +20 тепло 1012.0 1011.8
12 17.04 З 14
{21}
10 км 9/0
[Ac As Ci sp]
+20.4 +13.6 65 +22 +22 комфорт 1012.8 1006.0
15 17.04 СЗ 19
{19}
10 км 10/4 480 м
[Cu Sc Ac As]
+17.2 +13.1 77 +15 +15 прохладно 1012.9 1006.2
18 17.04 С 16
{21}
10 км 10/10 480 м
[Cu Sc]
+16.3 +11.0 71 +14 +14 прохладно 1014.5 1007.8 +21.4
06 18.04 Ю 5
{10}
6000 м 8/5 800 м
[Cu Sc Ac trans]
+13.1 +12.0 93 +11 +11 по сезону 1014.8 1008.1 +13.0
09 18.04 ЮЗ 10
{18}
5000 м 6/3 480 м
[Cb calv Ac As]
+19.1 +13.0 68 +19 +19 тепло 1015.8 1009.1
12 18.04 СЗ 14
{21}
10 км {дождь} 5/5 480 м
[Cu med, cong]
+19.0 +11.0 60 +18 +18 по сезону 1015.8 1009.1 0.2
15 18.04 СЗ 12
{25}
5000 м {дождь} 4/4 480 м
[Cu med, cong]
+19.5 +11.6 60 +20 +20 тепло 1015.2 1008.5
18 18.04 С 11
{27}
10 км 3/3 480 м
[Cu med, cong]
+17.4 +10.5 64 +16 +16 по сезону 1015.6 1008.9 +20.3
06 19.04 Ю 6
{10}
10 км 9/9 800 м
[Cu Sc]
+13.3 +11.4 88 +11 +11 по сезону 1015.7 1009.0 +13.2 0.6
09 19.04 Ю 6
{16}
10 км {дождь} 9/9 480 м
[Cu Sc]
+15.7 +12.3 80 +14 +15 по сезону 1016.2 1009.4 0.7
12 19.04 С 14
{19}
10 км 6/6 480 м
[Cu Sc]
+18.4 +11.8 65 +17 +17 по сезону 1016.1 1009.4
15 19.04 С 8
{14}
10 км 5/5 480 м
[Cu med, cong]
+18.9 +10.7 59 +19 +20 по сезону 1014.2 1007.5
18 19.04 СЗ 10
{23}
10 км 5/4 480 м
[Cu med, cong Ci sp]
+17.9 +10.6 62 +17 +17 по сезону 1013.6 1006.9 +19.9
06 20.04 Ю 2
{2}
12 км 9/9 800 м
[Cb calv]
+12.5 +10.6 88 +12 +12 по сезону 1011.8 1005.1 +12.2
09 20.04 В 8
{10}
10 км 5/5 480 м
[Cu Sc]
+17.6 +17.6 100 +17 +17 тепло 1012.4 1005.7
12 20.04 С 12
{18}
10 км 5/5 480 м
[Cu Sc]
+18.9 +11.3 61 +18 +18 по сезону 1012.1 1005.4
15 20.04 С 12
{22}
10 км 5/5 480 м
[Cu Sc]
+19.2 +11.1 59 +19 +19 по сезону 1011.1 1004.4
18 20.04 С 8
{20}
10 км 8/8 480 м
[Cu Sc]
+17.3 +10.9 66 +16 +16 по сезону 1011.6 1004.9 +19.8
06 21.04 Ю 6
{8}
10 км 4/4 480 м
[Cu Sc]
+12.0 +10.1 88 +9 +9 прохладно 1010.1 1003.4 +12.2
09 21.04 ЮЗ 7
{12}
10 км 9/8 480 м
[Cu Sc Ac trans]
+16.1 +11.7 75 +15 +15 по сезону 1010.6 1003.9
12 21.04 СЗ 14
{19}
10 км 9/8 480 м
[Cu Sc Ac trans]
+18.2 +10.5 61 +17 +17 по сезону 1010.3 1003.6
15 21.04 СЗ 12
{27}
10 км 4/1 480 м
[Cu med, cong Ac trans]
+20.6 +12.7 61 +22 +22 комфорт 1008.9 1002.2
18 21.04 СЗ 13
{33}
10 км 8/8 480 м
[Cu med, cong Ac trans]
+18.7 +13.7 73 +18 +18 по сезону 1008.7 1002.0 +20.7

 

Местоположение метеостанции Касабланка (Марокко): широта 33.57 долгота -7.67 высота над уровнем моря 57 м.

В архиве по умолчанию представлена погода в Касабланке за последнюю неделю. Архивные данные за месяц целиком и за предыдущие месяцы, начиная с января 2011 года, Вы можете получить, выбрав интересующий диапазон дат из раскрывающегося списка и нажав кнопку "Ввод!".


*Определитесь, кто Вы:
робот инопланетянин человек

Внимание! Время в таблицах - всемирное. Для получения местного времени необходимо прибавить поправку, которая равна 0 ч.

Смотрите также архив погоды в соседних городах и на ближайших метеорологических станциях:

Погода в Нуасере (Марокко) (24 км)
Погода в Мохаммедии (Марокко) (30 км)
Погода в Сеттате (Марокко) (69 км)
Погода в Рабате (Марокко) (99 км)
Погода в Хурибге (Марокко) (102 км)
Погода в Кенитре (Марокко) (128 км)
Погода в Касба-Тадле (Марокко) (174 км)
Погода в Бени-Меллале (Марокко) (178 км)
Погода в Мекнесе (Марокко) (201 км)
Погода в Сафи (Марокко) (204 км)

Пояснения к столбцам:

Ветер - указаны скорость ветра в м/с - средняя за 10 мин, порывы в срок и между сроками (в фигурных скобках) и направление, откуда дует ветер: С - северный, СВ - северо-восточный, В - восточный, ЮВ - юго-восточный, Ю - южный, ЮЗ - юго-западный, З - западный, СЗ - северо-западный.
Видимость - горизонтальная дальность видимости в метрах или километрах. При видимости от 1 до 10 км при отсутствии осадков обычно наблюдается дымка, при ухудшении видимости до 1 км и менее - туман. В сухую погоду видимость может ухудшаться дымом, пылью или мглою.
Явления - указаны атмосферные явления, наблюдавшиеся в срок или в последний час перед сроком; фигурными скобками обозначены явления, наблюдавшиеся между сроками (за 1-3 часа до срока); квадратными скобками обозначены град или гололедные отложения с указанием их диаметра в мм.
Облачность - указаны через наклонную черту общая и нижняя облачность в баллах и высота нижней границы облаков в метрах; квадратными скобками обозначены формы облаков: Ci - перистые, Cs - перисто-слоистые, Cc - перисто-кучевые, Ac - высококучевые, As - высокослоистые, Sc - слоисто-кучевые, Ns - слоисто-дождевые, Cu - кучевые, Cb - кучево-дождевые. Подробнее классификацию облаков см. в Атласе облаков (PDF).
T - Температура воздуха - температура, измеренная на высоте 2 м над землей.
Td - Температура точки росы - температура, при понижении до которой содержащийся в воздухе водяной пар достигнет насыщения.
f - Относительная влажность воздуха - влажноcть воздуха, измеренная на высоте 2 м над землей.
Te - Эффективная температура - температура, которую ощущает одетый по сезону человек в тени. Характеристика душности погоды. При расчете учитывается влияние влажности воздуха и скорости ветра на теплоощущения человека.
Tes - Эффективная температура на солнце - температура, которую ощущает человек, с поправкой на солнечный нагрев. Характеристика знойности погоды. Зависит от высоты солнца над горизонтом, облачности и скорости ветра. Ночью, в пасмурную погоду, а также при ветре 12 м/с и более поправка равна нулю.
P - Атмосферное давление - приведенное к уровню моря атмосферное давление.
Po - Атмосферное давление - измеренное на уровне метеостанции атмосферное давление.
Tmin - Минимальная температура - минимум температуры воздуха на высоте 2 м над землей.
Tmax - Максимальная температура - максимум температуры воздуха на высоте 2 м над землей.
R - Количество осадков - Количество выпавших осадков за период времени, мм. При наведении курсора мыши на число - период времени, за который выпало указанное количество осадков.
R24 - Количество осадков - Количество выпавших осадков за 24 часа, мм.
S - Снежный покров - Высота снежного покрова, см. При наведении курсора мыши на число - состояние снежного покрова и степень покрытия местности в баллах.